Weather History for KCTB - July, 2014

Change the Weather History Date:

Thursday, July 10, 2014

  Actual Average Record
Temperature  
Mean Temperature 70 °F 64 °F  
Max Temperature 86 °F 78 °F 101 °F (1973)
Min Temperature 54 °F 49 °F 39 °F (1922)
Degree Days  
Heating Degree Days 0 3  
Month to date heating degree days 4 40  
Since 1 June heating degree days 277 273  
Since 1 July heating degree days 4 40  
Cooling Degree Days 5 2  
Month to date cooling degree days 37 15  
Year to date cooling degree days 38 32  
Since 1 June cooling degree days 38 30  
Growing Degree Days 20 (Base 50)    
Moisture  
Dew Point 51 °F    
Average Humidity 58    
Maximum Humidity 86    
Minimum Humidity 29    
Precipitation  
Precipitation 0.00 in 0.05 in 0.63 in (1974)
Month to date precipitation 0.04 0.51  
Year to date precipitation 10.77 6.70  
Snow  
Snow 0.00 in - - ()
Snow Depth 0.00 in    
Sea Level Pressure  
Sea Level Pressure 29.80 in    
Wind  
Wind Speed 10 mph (NNW)    
Max Wind Speed 28 mph    
Max Gust Speed 34 mph    
Visibility 10 miles    
Events      
T = Trace of Precipitation, MM = Missing Value Source: NWS Daily Summary

Daily Weather History Graph

Daily Weather History Graph

Search for Another Location

Airport or City:

Trip Planner

Search our weather history database for the weather conditions in past years. The results will help you decide how hot, cold, wet, or windy it might be!

Date:

Astronomy

Jul. 10, 2014 Rise Set
Actual Time 5:38 AM MDT 9:30 PM MDT
Civil Twilight 4:57 AM MDT 10:11 PM MDT
Nautical Twilight 4:01 AM MDT 11:07 PM MDT
Astronomical Twilight 2:32 AM MDT 12:34 AM MDT
Moon 7:42 PM MDT (7/10) 3:58 AM MDT (7/10)
Length of Visible Light 17h 14m
Length of Day
15h 52m
Waxing Gibbous, 96% of the Moon is Illuminated
Jul 10
Waxing Gibbous
Jul 12
Full
Jul 18
Last Quarter
Jul 26
New
Aug 3
First Quarter

Hourly Weather History & Observations

Time (MDT) Temp. Heat Index Dew Point Humidity Pressure Visibility Wind Dir Wind Speed Gust Speed Precip Events Conditions
12:56 AM 66.9 °F - 46.0 °F 47% 29.69 in 10.0 mi WSW 17.3 mph - N/A   Clear
1:56 AM 69.1 °F - 44.1 °F 40% 29.69 in 10.0 mi West 20.7 mph - N/A   Clear
2:56 AM 63.0 °F - 46.0 °F 54% 29.72 in 10.0 mi WNW 12.7 mph - N/A   Clear
3:14 AM 62.1 °F - 46.9 °F 58% 29.85 in 10.0 mi NNW 20.7 mph 26.5 mph N/A   Clear
3:56 AM 57.9 °F - 51.1 °F 78% 29.77 in 10.0 mi NNW 18.4 mph - N/A   Clear
4:56 AM 55.0 °F - 51.1 °F 86% 29.79 in 10.0 mi NNW 10.4 mph - N/A   Clear
5:56 AM 55.0 °F - 51.1 °F 86% 29.83 in 10.0 mi WNW 9.2 mph - N/A   Clear
6:56 AM 57.0 °F - 51.1 °F 81% 29.84 in 10.0 mi NW 10.4 mph - N/A   Clear
7:56 AM 61.0 °F - 52.0 °F 72% 29.84 in 10.0 mi NNW 16.1 mph - N/A   Clear
8:56 AM 64.0 °F - 52.0 °F 65% 29.85 in 10.0 mi NNW 11.5 mph - N/A   Clear
9:56 AM 66.9 °F - 53.1 °F 61% 29.84 in 10.0 mi North 6.9 mph - N/A   Clear
10:56 AM 69.1 °F - 53.1 °F 57% 29.83 in 10.0 mi Variable 3.5 mph - N/A   Clear
11:56 AM 72.0 °F - 52.0 °F 49% 29.82 in 10.0 mi Variable 3.5 mph - N/A   Clear
12:56 PM 75.0 °F - 52.0 °F 44% 29.80 in 10.0 mi Variable 3.5 mph - N/A   Clear
1:56 PM 78.1 °F - 52.0 °F 40% 29.78 in 10.0 mi Variable 4.6 mph - N/A   Clear
2:56 PM 81.0 °F - 52.0 °F 36% 29.77 in 10.0 mi Variable 4.6 mph - N/A   Clear
3:56 PM 81.0 °F - 48.9 °F 33% 29.77 in 10.0 mi Calm Calm - N/A   Clear
4:56 PM 84.0 °F - 48.0 °F 28% 29.76 in 10.0 mi Variable 4.6 mph - N/A   Clear
5:56 PM 84.9 °F - 48.0 °F 28% 29.75 in 10.0 mi Calm Calm - N/A   Clear
6:56 PM 84.0 °F - 50.0 °F 31% 29.76 in 10.0 mi North 8.1 mph - N/A   Clear
7:56 PM 82.4 °F 81.4 °F 53.6 °F 37% 29.86 in 10.0 mi NE 5.8 mph - N/A   Clear
8:56 PM 73.9 °F - 55.9 °F 53% 29.80 in 10.0 mi NE 13.8 mph - N/A   Clear
9:56 PM 69.1 °F - 55.9 °F 63% 29.85 in 10.0 mi NNE 9.2 mph - N/A   Clear
10:56 PM 64.0 °F - 55.9 °F 75% 29.89 in 10.0 mi North 13.8 mph - N/A   Clear
11:56 PM 61.0 °F - 48.9 °F 64% 29.97 in 10.0 mi North 19.6 mph 27.6 mph N/A   Clear